Weather History for Minneapolis, MN

Change the Weather History Date:

Monday, December 31, 2012

  Actual Average Record
Temperature  
Mean Temperature 10 °F 16 °F  
Max Temperature 18 °F 24 °F 50 °F (1904)
Min Temperature 1 °F 9 °F -24 °F (1973)
Degree Days  
Heating Degree Days 55 49  
Month to date heating degree days 1284 1405  
Since 1 July heating degree days 2772 3023  
Cooling Degree Days 0 0  
Month to date cooling degree days 0 0  
Year to date cooling degree days 1131 753  
Moisture  
Dew Point 4 °F    
Average Humidity 73    
Maximum Humidity 88    
Minimum Humidity 58    
Precipitation  
Precipitation T in 0.03 in 0.98 in (2006)
Month to date precipitation 1.64 1.16  
Year to date precipitation 29.59 30.61  
Snow  
Snow T in 0.40 in 7.20 in (1977)
Month to date snowfall 15.0 11.9  
Since 1 July snowfall 15.8 21.8  
Snow Depth 3.00 in    
Sea Level Pressure  
Sea Level Pressure 30.18 in    
Wind  
Wind Speed 9 mph (NW)    
Max Wind Speed 22 mph    
Max Gust Speed 29 mph    
Visibility 10 miles    
Events      
T = Trace of Precipitation, MM = Missing Value Source: NWS Daily Summary

Daily Weather History Graph

Daily Weather History Graph

Search for Another Location

Airport:

Trip Planner

Search our weather history database for the weather conditions in past years. The results will help you decide how hot, cold, wet, or windy it might be!

Date:

Astronomy

Dec. 31, 2012 Rise Set
Actual Time 7:50 AM CST 4:41 PM CST
Civil Twilight 7:17 AM CST 5:15 PM CST
Nautical Twilight 6:40 AM CST 5:52 PM CST
Astronomical Twilight 6:04 AM CST 6:28 PM CST
Moon 8:22 PM CST (12/31) 9:23 AM CST (12/31)
Length of Visible Light 9h 58m
Length of Day
8h 51m
Waning Gibbous, 90% of the Moon is Illuminated
Dec 31
Waning Gibbous
Jan 4
Last Quarter
Jan 11
New
Jan 18
First Quarter
Jan 26
Full

Hourly Weather History & Observations

Time (CST) Temp. Windchill Dew Point Humidity Pressure Visibility Wind Dir Wind Speed Gust Speed Precip Events Conditions
12:23 AM 17.6 °F 5.7 °F 12.2 °F 79% 29.98 in 9.0 mi WNW 10.4 mph - N/A   Overcast
12:49 AM 17.6 °F 4.3 °F 14.0 °F 86% 29.99 in 8.0 mi NW 12.7 mph - N/A   Mostly Cloudy
12:53 AM 17.1 °F 3.6 °F 14.0 °F 88% 30.04 in 8.0 mi WNW 12.7 mph - N/A   Mostly Cloudy
1:00 AM 17.6 °F 3.7 °F 12.2 °F 79% 29.99 in 8.0 mi NW 13.8 mph - N/A   Scattered Clouds
1:53 AM 15.1 °F 1.8 °F 10.9 °F 84% 30.07 in 9.0 mi WNW 11.5 mph - N/A   Mostly Cloudy
2:30 AM 15.8 °F 3.4 °F 12.2 °F 86% 30.04 in 8.0 mi NW 10.4 mph - N/A   Overcast
2:53 AM 16.0 °F 2.3 °F 12.0 °F 84% 30.10 in 8.0 mi WNW 12.7 mph - N/A   Overcast
3:42 AM 17.6 °F 5.0 °F 12.2 °F 79% 30.06 in 8.0 mi WNW 11.5 mph 17.3 mph N/A   Overcast
3:53 AM 17.1 °F 4.3 °F 12.0 °F 81% 30.12 in 8.0 mi WNW 11.5 mph 18.4 mph N/A   Overcast
4:53 AM 14.0 °F -2.5 °F 7.0 °F 74% 30.14 in 10.0 mi NW 17.3 mph - 0.00 in   Mostly Cloudy
5:07 AM 14.0 °F -0.2 °F 6.8 °F 73% 30.09 in 10.0 mi NW 12.7 mph - N/A   Scattered Clouds
5:45 AM 12.2 °F 1.7 °F 5.0 °F 73% 30.12 in 10.0 mi West 6.9 mph - N/A   Partly Cloudy
5:53 AM 12.9 °F 2.6 °F 6.1 °F 74% 30.18 in 10.0 mi West 6.9 mph - N/A   Partly Cloudy
6:53 AM 10.9 °F 0.2 °F 6.1 °F 81% 30.19 in 10.0 mi West 6.9 mph - N/A   Clear
7:53 AM 9.0 °F -2.2 °F 5.0 °F 84% 30.18 in 10.0 mi WNW 6.9 mph - N/A   Partly Cloudy
8:53 AM 10.9 °F -4.1 °F 3.0 °F 70% 30.20 in 10.0 mi NW 12.7 mph - N/A   Partly Cloudy
9:53 AM 10.9 °F -4.7 °F 1.0 °F 64% 30.23 in 10.0 mi NW 13.8 mph 21.9 mph N/A   Clear
10:53 AM 10.9 °F -2.6 °F 1.0 °F 64% 30.24 in 10.0 mi WNW 10.4 mph - N/A   Partly Cloudy
11:53 AM 12.0 °F -1.3 °F -0.0 °F 59% 30.22 in 10.0 mi NNW 10.4 mph - N/A   Partly Cloudy
12:53 PM 12.9 °F -0.9 °F -0.0 °F 56% 30.21 in 10.0 mi NW 11.5 mph - N/A   Partly Cloudy
1:53 PM 12.9 °F 2.6 °F -0.0 °F 56% 30.22 in 10.0 mi WNW 6.9 mph - N/A   Partly Cloudy
2:53 PM 12.9 °F 0.7 °F -0.0 °F 56% 30.23 in 10.0 mi NNW 9.2 mph - N/A   Clear
3:53 PM 10.9 °F -3.4 °F -0.9 °F 59% 30.25 in 10.0 mi WNW 11.5 mph - N/A   Partly Cloudy
4:53 PM 9.0 °F -5.1 °F -2.0 °F 61% 30.26 in 10.0 mi NW 10.4 mph - N/A   Partly Cloudy
5:53 PM 7.0 °F -8.3 °F -2.0 °F 67% 30.26 in 10.0 mi NW 11.5 mph - N/A   Clear
6:53 PM 6.1 °F -4.3 °F -2.9 °F 67% 30.28 in 10.0 mi WNW 5.8 mph - N/A   Clear
7:53 PM 5.0 °F -5.6 °F -4.0 °F 66% 30.29 in 10.0 mi NNW 5.8 mph - N/A   Clear
8:53 PM 5.0 °F -5.6 °F -4.0 °F 66% 30.30 in 10.0 mi NNW 5.8 mph - N/A   Clear
9:53 PM 1.9 °F -5.6 °F -4.0 °F 76% 30.30 in 10.0 mi WNW 3.5 mph - N/A   Clear
10:53 PM 3.0 °F - -2.9 °F 76% 30.32 in 10.0 mi Calm Calm - N/A   Clear
11:53 PM 1.4 °F -6.2 °F -4.0 °F 78% 30.26 in 9.0 mi WNW 3.5 mph - N/A   Clear